FW6211 Weather Reports


Display with metric or nautical units.
time (UTC)temp
F
wind
direction
speed
MPH
gust
MPH
rain 1hr
in
rain 24hr
in
rain mn
in
humidity
%
barometer
mb
20260506230026 70 0.0 0.0 0.00 0.00 0.00 30 1009.2
20260506225022 69 0.0 1.0 0.00 0.00 0.00 30 1009.4
20260506224016 69 0.0 0.0 0.00 0.00 0.00 30 1009.4
20260506223029 69 0.0 0.0 0.00 0.00 0.00 30 1009.5
20260506222024 68 0.0 0.0 0.00 0.00 0.00 30 1009.5
20260506221039 68 0.0 0.0 0.00 0.00 0.00 30 1009.7
20260506220032 69 0.0 0.0 0.00 0.00 0.00 29 1009.9
20260506215027 69 0.0 0.0 0.00 0.00 0.00 30 1010.1
20260506214021 68 0.0 2.0 0.00 0.00 0.00 30 1010.2
20260506213017 69 0.0 0.0 0.00 0.00 0.00 30 1010.2
20260506212050 68 0.0 0.0 0.00 0.00 0.00 30 1010.4
20260506211024 68 0.0 0.0 0.00 0.00 0.00 29 1010.6
20260506210019 68 0.0 0.0 0.00 0.00 0.00 29 1010.6
20260506205032 69 0.0 1.0 0.00 0.00 0.00 30 1010.8
20260506204022 68 0.0 1.0 0.00 0.00 0.00 30 1010.8
20260506203037 66 0.0 0.0 0.00 0.00 0.00 31 1010.8
20260506202024 67 0.0 0.0 0.00 0.00 0.00 30 1011.0
20260506201019 65 0.0 0.0 0.00 0.00 0.00 31 1011.2
20260506200040 66 1.0 6.0 0.00 0.00 0.00 32 1011.3
20260506195016 65 0.0 0.0 0.00 0.00 0.00 32 1011.3
20260506194049 66 0.0 0.0 0.00 0.00 0.00 32 1011.4
20260506193024 65 0.0 1.0 0.00 0.00 0.00 33 1011.4
20260506192019 64 0.0 0.0 0.00 0.00 0.00 32 1011.7
20260506191032 65 135 0.0 1.0 0.00 0.00 0.00 33 1011.7
20260506190026 64 0.0 1.0 0.00 0.00 0.00 33 1012.1
20260506185022 63 135 0.0 1.0 0.00 0.00 0.00 34 1012.1
20260506184016 62 135 0.0 2.0 0.00 0.00 0.00 35 1012.1
20260506183029 62 135 0.0 4.0 0.00 0.00 0.00 34 1012.1
20260506182104 63 0.0 3.0 0.00 0.00 0.00 34 1012.3
20260506181019 62 0.0 1.0 0.00 0.00 0.00 34 1012.2
20260506180032 62 135 0.0 5.0 0.00 0.00 0.00 34 1012.4
20260506175027 62 0.0 0.0 0.00 0.00 0.00 35 1012.5
20260506174022 61 0.0 0.0 0.00 0.00 0.00 36 1012.7
20260506173016 59 0.0 1.0 0.00 0.00 0.00 37 1012.8
20260506172030 58 135 0.0 1.0 0.00 0.00 0.00 38 1012.9
20260506171025 58 0.0 0.0 0.00 0.00 0.00 39 1013.3
20260506170020 58 0.0 0.0 0.00 0.00 0.00 38 1013.3
20260506165033 57 0.0 0.0 0.00 0.00 0.00 39 1013.4
20260506164023 57 0.0 0.0 0.00 0.00 0.00 39 1013.5
20260506163018 56 0.0 1.0 0.00 0.00 0.00 41 1013.5
20260506162045 55 0.0 0.0 0.00 0.00 0.00 41 1013.7
20260506161020 55 0.0 0.0 0.00 0.00 0.00 41 1013.8
20260506160020 54 0.0 0.0 0.00 0.00 0.00 42 1013.9
20260506155033 53 0.0 0.0 0.00 0.00 0.00 42 1014.0
20260506154028 52 135 0.0 1.0 0.00 0.00 0.00 43 1014.1
20260506153023 52 0.0 0.0 0.00 0.00 0.00 43 1014.2
20260506152018 51 0.0 0.0 0.00 0.00 0.00 42 1014.3
20260506151031 53 0.0 1.0 0.00 0.00 0.00 41 1014.5
20260506150025 51 0.0 0.0 0.00 0.00 0.00 42 1014.5
20260506145020 50 0.0 2.0 0.00 0.00 0.00 44 1014.8
20260506144015 49 135 0.0 2.0 0.00 0.00 0.00 44 1014.9
20260506143016 48 1.0 4.0 0.00 0.00 0.00 45 1014.9
20260506142023 48 113 1.0 3.0 0.00 0.00 0.00 45 1014.9
20260506141038 47 0.0 0.0 0.00 0.00 0.00 46 1015.1
20260506140019 45 0.0 1.0 0.00 0.00 0.00 49 1015.3
20260506135031 44 95 0.0 4.0 0.00 0.00 0.00 49 1015.4
20260506134027 43 0.0 0.0 0.00 0.00 0.00 50 1015.5
20260506133021 42 0.0 0.0 0.00 0.00 0.00 51 1015.6
20260506132016 41 0.0 2.0 0.00 0.00 0.00 52 1015.5
20260506131029 40 0.0 1.0 0.00 0.00 0.00 53 1015.6
20260506130024 40 0.0 0.0 0.00 0.00 0.00 54 1015.8
20260506125059 40 0.0 0.0 0.00 0.00 0.00 54 1015.7
20260506124020 39 113 0.0 2.0 0.00 0.00 0.00 54 1015.8
20260506123026 39 113 0.0 1.0 0.00 0.00 0.00 55 1015.9
20260506122021 38 0.0 0.0 0.00 0.00 0.00 56 1015.9
20260506121016 37 0.0 0.0 0.00 0.00 0.00 57 1016.1
20260506120017 37 0.0 0.0 0.00 0.00 0.00 57 1016.2
20260506115030 37 0.0 0.0 0.00 0.00 0.00 58 1016.3
20260506114025 37 0.0 0.0 0.00 0.00 0.00 58 1016.4
20260506113020 36 0.0 0.0 0.00 0.00 0.00 59 1016.5
20260506112034 36 0.0 0.0 0.00 0.00 0.00 59 1016.7
20260506111029 36 0.0 0.0 0.00 0.00 0.00 58 1016.7
20260506110024 36 0.0 0.0 0.00 0.00 0.00 58 1016.7
20260506105018 37 0.0 0.0 0.00 0.00 0.00 58 1016.8
20260506104032 37 0.0 0.0 0.00 0.00 0.00 57 1016.9
20260506103026 37 0.0 0.0 0.00 0.00 0.00 57 1017.1
20260506102021 37 0.0 0.0 0.00 0.00 0.00 57 1017.2
20260506101016 37 0.0 0.0 0.00 0.00 0.00 56 1017.1
20260506100049 38 0.0 1.0 0.00 0.00 0.00 55 1017.2
20260506095025 38 0.0 0.0 0.00 0.00 0.00 55 1017.2
20260506094019 38 0.0 0.0 0.00 0.00 0.00 56 1017.4
20260506093031 38 0.0 0.0 0.00 0.00 0.00 57 1017.5
20260506092047 38 0.0 1.0 0.00 0.00 0.00 57 1017.8
20260506091022 38 0.0 0.0 0.00 0.00 0.00 56 1018.1
20260506090016 38 0.0 0.0 0.00 0.00 0.00 55 1017.9
20260506085024 39 0.0 0.0 0.00 0.00 0.00 54 1018.1
20260506084025 40 0.0 0.0 0.00 0.00 0.00 53 1018.2
20260506083046 39 113 0.0 3.0 0.00 0.00 0.00 53 1018.3
20260506082020 39 0.0 0.0 0.00 0.00 0.00 53 1018.3
20260506081015 40 0.0 0.0 0.00 0.00 0.00 53 1018.6
20260506073031 40 0.0 0.0 0.00 0.00 0.00 53 1019.0
20260506072026 41 0.0 0.0 0.00 0.00 0.00 52 1019.1
20260506071021 41 0.0 0.0 0.00 0.00 0.00 52 1019.2
20260506062040 42 0.0 0.0 0.00 0.00 0.00 52 1019.4
20260506061113 42 0.0 0.0 0.00 0.00 0.00 52 1019.7
20260506051032 44 0.0 1.0 0.00 0.00 0.00 51 1020.1
20260506045023 45 0.0 0.0 0.00 0.00 0.00 50 1020.2
20260506044017 45 0.0 0.0 0.00 0.00 0.00 49 1020.2
20260506043045 45 0.0 0.0 0.00 0.00 0.00 49 1020.2
20260506042019 45 0.0 0.0 0.00 0.00 0.00 48 1020.3
20260506041021 46 0.0 0.0 0.00 0.00 0.00 48 1020.4
20260506040015 46 0.0 0.0 0.00 0.00 0.00 48 1020.5
20260506035049 47 0.0 0.0 0.00 0.00 0.00 48 1020.5
20260506034023 47 0.0 0.0 0.00 0.00 0.00 48 1020.5
20260506033018 47 0.0 0.0 0.00 0.00 0.00 48 1020.5
20260506032031 47 0.0 0.0 0.00 0.00 0.00 48 1020.5
20260506031046 47 0.0 0.0 0.00 0.00 0.00 47 1020.6
20260506030041 48 0.0 0.0 0.00 0.00 0.00 47 1020.6
20260506025016 48 0.0 0.0 0.00 0.00 0.00 46 1020.7
20260506024016 49 0.0 0.0 0.00 0.00 0.00 45 1020.7
20260506023023 49 0.0 0.0 0.00 0.00 0.00 45 1020.7
20260506022019 49 0.0 0.0 0.00 0.00 0.00 44 1020.8
20260506021019 50 0.0 0.0 0.00 0.00 0.00 43 1020.9
20260506020113 50 0.0 0.0 0.00 0.00 0.00 42 1020.9
20260506015048 50 0.0 0.0 0.00 0.00 0.00 42 1021.0
20260506014022 51 0.0 0.0 0.00 0.00 0.00 42 1021.0
20260506013017 51 0.0 0.0 0.00 0.00 0.00 42 1021.1
20260506012031 52 0.0 0.0 0.00 0.00 0.00 41 1021.1
20260506011046 53 0.0 0.0 0.00 0.00 0.00 41 1021.3
20260506010020 53 0.0 0.0 0.00 0.00 0.00 41 1021.3
20260506005016 53 0.0 0.0 0.00 0.00 0.00 40 1021.4
20260506004029 54 0.0 0.0 0.00 0.00 0.00 39 1021.5
20260506003024 55 0.0 0.0 0.00 0.00 0.00 39 1021.5
20260506002039 56 0.0 0.0 0.00 0.00 0.00 36 1021.8
20260506001032 58 0.0 0.0 0.00 0.00 0.00 36 1021.8
20260506000026 56 0.0 0.0 0.00 0.00 0.00 37 1021.9
20260505235042 56 0.0 0.0 0.00 0.00 0.00 39 1022.0
20260505234017 54 0.0 0.0 0.00 0.00 0.00 39 1022.1
20260505233030 57 0.0 0.0 0.00 0.00 0.00 37 1022.2
20260505232024 57 0.0 0.0 0.00 0.00 0.00 37 1022.3
20260505231020 57 0.0 0.0 0.00 0.00 0.00 36 1022.5